TimeEDT,TemperatureF,Dew PointF,Humidity,Sea Level PressureIn,VisibilityMPH,Wind Direction,Wind SpeedMPH,Gust SpeedMPH,PrecipitationIn,Events,Conditions,WindDirDegrees,DateUTC
12:54 AM,39.0,37.9,96,30.37,5.0,South,5.8,-,N/A,,Overcast,170,2008-03-30 04:54:00
1:54 AM,39.0,37.0,93,30.36,8.0,South,4.6,-,N/A,,Overcast,170,2008-03-30 05:54:00
2:54 AM,39.0,35.1,86,30.37,9.0,SW,4.6,-,N/A,,Overcast,220,2008-03-30 06:54:00
3:54 AM,37.0,36.0,96,30.37,2.5,South,3.5,-,N/A,,Overcast,170,2008-03-30 07:54:00
4:16 AM,37.4,35.6,93,30.37,3.0,WSW,3.5,-,0.01,Rain,Light Rain,240,2008-03-30 08:16:00
4:54 AM,37.0,35.1,93,30.38,4.0,Calm,Calm,-,0.01,Rain,Light Rain,0,2008-03-30 08:54:00
5:54 AM,36.0,36.0,100,30.40,3.0,WSW,3.5,-,0.01,Rain,Light Rain,240,2008-03-30 09:54:00
6:23 AM,35.6,35.6,100,30.38,3.0,Calm,Calm,-,0.00,,Overcast,0,2008-03-30 10:23:00
6:54 AM,36.0,35.1,97,30.41,4.0,West,3.5,-,0.00,Rain,Light Rain,260,2008-03-30 10:54:00
7:54 AM,36.0,34.0,93,30.43,2.5,SSE,4.6,-,0.00,,Overcast,160,2008-03-30 11:54:00
8:26 AM,37.4,33.8,87,30.42,2.5,South,3.5,-,N/A,,Overcast,170,2008-03-30 12:26:00
8:33 AM,37.4,33.8,87,30.42,5.0,SSE,3.5,-,N/A,,Overcast,160,2008-03-30 12:33:00
8:54 AM,37.0,34.0,89,30.45,5.0,SSW,3.5,-,N/A,,Overcast,210,2008-03-30 12:54:00
9:54 AM,37.9,33.1,83,30.45,10.0,WNW,3.5,-,N/A,,Overcast,300,2008-03-30 13:54:00
10:54 AM,37.0,34.0,89,30.47,8.0,West,3.5,-,N/A,,Overcast,280,2008-03-30 14:54:00
11:54 AM,39.9,34.0,79,30.45,10.0,Calm,Calm,-,N/A,,Overcast,0,2008-03-30 15:54:00
12:54 PM,41.0,34.0,76,30.46,10.0,South,4.6,-,N/A,,Overcast,180,2008-03-30 16:54:00
1:54 PM,42.1,34.0,73,30.45,10.0,South,9.2,-,N/A,,Overcast,170,2008-03-30 17:54:00
2:54 PM,42.1,34.0,73,30.43,10.0,SSE,9.2,-,N/A,,Overcast,160,2008-03-30 18:54:00
3:54 PM,43.0,35.1,74,30.42,10.0,SSE,9.2,-,N/A,,Overcast,160,2008-03-30 19:54:00
4:54 PM,42.1,36.0,79,30.41,10.0,SSE,10.4,-,N/A,,Overcast,160,2008-03-30 20:54:00
5:54 PM,41.0,36.0,82,30.43,10.0,South,9.2,-,N/A,,Overcast,170,2008-03-30 21:54:00
6:54 PM,41.0,36.0,82,30.44,8.0,South,8.1,-,N/A,,Overcast,170,2008-03-30 22:54:00
7:14 PM,41.0,35.6,81,30.43,9.0,South,9.2,-,N/A,,Overcast,170,2008-03-30 23:14:00
7:54 PM,39.9,36.0,86,30.45,9.0,SSE,8.1,-,N/A,,Overcast,150,2008-03-30 23:54:00
8:29 PM,39.2,35.6,87,30.44,10.0,SSE,6.9,-,N/A,,Overcast,160,2008-03-31 00:29:00
8:54 PM,39.9,36.0,86,30.46,10.0,SSE,10.4,-,N/A,,Overcast,160,2008-03-31 00:54:00
9:54 PM,39.0,36.0,89,30.48,9.0,SSE,6.9,-,N/A,,Overcast,160,2008-03-31 01:54:00
10:54 PM,37.9,37.0,97,30.48,6.0,South,8.1,-,N/A,,Overcast,180,2008-03-31 02:54:00
11:54 PM,37.9,36.0,93,30.46,10.0,South,8.1,-,N/A,,Overcast,180,2008-03-31 03:54:00